[[{"header":{"parameterUnit":"m.s-1","parameterCategory":1,"la1":30.2991,"la2":30.254,"lo1":-89.0895,"lo2":-89.0444,"dy":0.0017,"dx":0.0017,"nx":28,"ny":28,"refTime":"2024-04-11T21:00:00:Z","depth":0,"parameterNumber":2,"parameterNumberName":"U-component_of_WINDS"},"data":[0,0,0,0,0,0,0,0,0,0,0,0,0,0,0,0,0,0,0,0,0,0,0,0,0,0,0,0,0,0,0,0,0,0,0,0,0,0,0,0,0,0,0,0,0,0,0,0,0,0,0,0,0,0,0,0,0,0,4.261,4.2612,0,4.2799,4.2801,4.2803,4.2776,4.2772,4.2769,4.2766,4.2964,4.2972,4.2981,0,0,0,0,0,0,0,0,0,0,0,0,0,4.2228,4.2235,4.2609,4.2612,4.2614,4.2799,4.2801,4.2804,4.2776,4.2772,4.2768,4.2765,4.2962,4.2971,4.2981,0,0,0,0,0,0,0,0,0,0,0,0,0,4.2403,4.2237,4.2609,4.2623,4.2626,4.2798,4.2801,4.2805,4.2777,4.2772,4.2767,4.2763,4.2958,4.2971,4.2983,4.3155,0,0,4.3021,4.3026,0,0,0,0,0,0,0,0,4.2393,4.2417,4.2618,4.2622,4.2626,4.2759,4.2739,4.2922,4.2778,4.272,4.2766,4.2761,4.29,4.2917,4.2963,4.3164,4.3173,4.3022,4.3029,4.3035,4.3038,0,0,0,0,0,0,0,4.2381,4.2409,4.2685,4.2621,4.2626,4.262,4.264,4.2774,4.2835,4.2724,4.2723,4.2745,4.2901,4.2951,4.2968,4.3176,4.3021,4.3032,4.304,4.3045,4.3528,4.3533,0,0,0,0,0,0,4.2365,4.2399,4.2679,4.269,4.2495,4.2631,4.2653,4.2721,4.2833,4.2845,4.2749,4.2743,4.2933,4.2953,4.2975,4.3183,4.3034,4.3046,4.3053,4.3523,4.3529,4.3535,0,0,0,0,0,0,4.2356,4.239,4.2671,4.2544,4.258,4.2643,4.2719,4.2727,4.2777,4.2852,4.2863,4.2789,4.293,4.2957,4.311,4.319,4.3052,4.3063,4.3516,4.3525,4.3532,4.3602,0,0,0,0,0,0,4.2346,4.2387,4.2452,4.2546,4.2586,4.2802,4.2724,4.2734,4.2798,4.2792,4.2892,4.2904,4.2928,4.3092,4.3122,4.3204,4.3073,4.3509,4.352,4.353,4.3593,4.3612,4.3628,0,0,0,0,0,4.2332,4.2466,4.2456,4.249,4.2669,4.2807,4.283,4.2854,4.2805,4.2871,4.2919,4.2901,4.3176,4.3108,4.3142,4.3229,4.3504,4.3517,4.3529,4.3585,4.3608,4.3627,0,0,0,0,0,0,4.2381,4.2478,4.2468,4.2636,4.2713,4.2802,4.2887,4.2877,4.2971,4.2962,4.2989,4.3012,4.3166,4.3213,4.3135,4.3401,4.3334,4.3353,4.3365,4.3387,4.3404,4.3389,4.3083,0,0,0,0,0,4.2411,4.2514,4.2594,4.2734,4.2773,4.2823,4.2884,4.2895,4.2977,4.301,4.307,4.3151,4.3256,4.3324,4.3425,4.36,4.3621,4.3677,4.3694,4.3708,4.3724,4.382,4.3845,4.3575,4.3575,4.3575,0,0,4.2475,4.2541,4.2604,4.2745,4.2806,4.2913,4.2851,4.2967,4.3046,4.3029,4.3176,4.3222,4.3315,4.3479,4.3555,4.3523,4.3804,4.3723,4.3734,4.3743,4.3835,4.3861,4.3883,4.3583,4.3582,4.358,0,0,4.2645,4.2705,4.2828,4.289,4.2983,4.3016,4.3046,4.3136,4.3166,4.3314,4.3303,4.3399,4.3579,4.3645,4.3702,4.3897,4.3884,4.393,4.402,4.4113,4.4134,4.4153,4.4222,4.4247,4.3946,4.3946,4.3946,0,4.2713,4.2871,4.2893,4.3009,4.3072,4.3059,4.3185,4.3245,4.3367,4.3411,4.3373,4.3598,4.366,4.3839,4.3887,4.3934,4.3969,4.3918,4.4129,4.4148,4.4166,4.4233,4.4259,4.3951,4.395,4.395,4.3949,0,4.295,4.306,4.3149,4.3265,4.3338,4.3458,4.3498,4.357,4.3575,4.3612,4.3763,4.3837,4.3951,4.3995,4.4002,4.4176,4.4153,4.4122,4.4055,4.4197,4.4259,4.4285,4.3958,4.3956,4.3955,4.3953,0,0,4.3156,4.3282,4.3314,4.3366,4.3468,4.3554,4.3675,4.3785,4.3846,4.3931,4.4032,4.4185,4.4156,4.4222,4.4236,4.4318,4.4467,4.4277,4.4279,4.4309,4.4663,4.4685,4.4714,4.4459,4.4464,4.4468,4.4655,0,4.3335,4.3546,4.3568,4.3757,4.3859,4.3849,4.3954,4.4028,4.4066,4.4159,4.4202,4.4309,4.4264,4.4303,4.4383,4.4432,4.4538,4.4419,4.4554,4.4559,4.453,4.4747,4.477,4.4943,4.4679,4.4684,4.4687,0,4.3572,4.3662,4.386,4.3947,4.3991,4.4084,4.4188,4.4277,4.4361,4.4383,4.4456,4.4459,4.4584,4.4512,4.4685,4.4603,4.466,4.4693,4.47,4.4713,4.4631,4.4765,4.4999,4.5024,4.4726,4.4722,4.472,0,4.3702,4.3872,4.4013,4.4058,4.4163,4.4229,4.4276,4.4356,4.4421,4.4512,4.4554,4.466,4.4717,4.4799,4.4831,4.4776,4.5002,4.4933,4.5024,4.5024,4.5072,4.5068,4.5318,4.511,4.511,4.5109,4.5109,0,4.3899,4.4021,4.4072,4.4158,4.4294,4.432,4.4454,4.4499,4.457,4.4665,4.4664,4.4754,4.4791,4.4888,4.4914,4.5053,4.5079,4.5101,4.5106,4.5101,4.5098,4.5138,4.5126,4.5116,4.5115,4.5113,4.5112,0,4.4067,4.4106,4.4258,4.4345,4.4369,4.4466,4.454,4.4625,4.4661,4.4782,4.4812,4.487,4.4983,4.5023,4.5162,4.5179,4.534,4.5336,4.5311,4.5312,4.5401,4.5391,4.5684,4.5723,4.5491,4.5493,4.5495,0,4.4189,4.4282,4.4379,4.4441,4.449,4.4593,4.4658,4.4688,4.4756,4.4859,4.4931,4.5043,4.5134,4.5316,4.5371,4.5477,4.5475,4.557,4.5491,4.5482,4.5475,4.5469,4.5478,4.5585,4.5587,4.5589,4.5591,0,4.4403,4.4418,4.4512,4.4613,4.4692,4.4773,4.4852,4.4905,4.4946,4.5024,4.5138,4.5209,4.5349,4.546,4.5568,4.5618,4.5612,4.5615,4.5642,4.5636,4.5617,4.5628,4.535,4.5608,4.5606,4.5605,4.5604,4.5603,4.4552,4.4634,4.4714,4.4819,4.4881,4.4955,4.5037,4.5084,4.5179,4.5294,4.5306,4.543,4.5512,4.5656,4.5711,4.5809,4.5783,4.5822,4.5832,4.584,4.5846,4.5602,4.5829,4.5829,4.5828,4.5828,4.5828,0,4.4765,4.4815,4.4912,4.5021,4.5104,4.5089,4.5176,4.5247,4.5355,4.5432,4.5521,4.5653,4.5761,4.5824,4.5933,4.5999,4.5998,4.6026,4.6021,4.6033,4.5864,4.583,4.6024,4.6024,4.6024,4.6024,4.6024,4.6024,4.4885,4.5022,4.5047,4.5215,4.5265,4.5385,4.5435,4.5504,4.5565,4.5712,4.5801,4.5841,4.5912,4.6026,4.6125,4.6141,4.618,4.621,4.6224,4.6065,4.6045,4.6025,4.5993,4.6219,4.6219,4.6384,4.6386,4.6387]},{"header":{"parameterUnit":"m.s-1","parameterCategory":1,"la1":30.2991,"la2":30.254,"lo1":-89.0895,"lo2":-89.0444,"dy":0.0017,"dx":0.0017,"nx":28,"ny":28,"refTime":"2024-04-11T21:00:00:Z","depth":0,"parameterNumber":3,"parameterNumberName":"V-component_of_WINDS"},"data":[0,0,0,0,0,0,0,0,0,0,0,0,0,0,0,0,0,0,0,0,0,0,0,0,0,0,0,0,0,0,0,0,0,0,0,0,0,0,0,0,0,0,0,0,0,0,0,0,0,0,0,0,0,0,0,0,0,0,-0.1206,-0.1205,0,-0.1096,-0.1094,-0.1093,-0.107,-0.1071,-0.1072,-0.1072,-0.0957,-0.0953,-0.0949,0,0,0,0,0,0,0,0,0,0,0,0,0,-0.1396,-0.1393,-0.1207,-0.1205,-0.1204,-0.1096,-0.1094,-0.1093,-0.107,-0.1071,-0.1072,-0.1073,-0.0958,-0.0954,-0.0949,0,0,0,0,0,0,0,0,0,0,0,0,0,-0.1303,-0.1392,-0.1207,-0.1179,-0.1176,-0.1096,-0.1094,-0.1092,-0.107,-0.1071,-0.1072,-0.1073,-0.096,-0.0954,-0.0948,-0.0888,0,0,-0.0931,-0.0928,0,0,0,0,0,0,0,0,-0.1308,-0.1296,-0.1185,-0.1181,-0.1177,-0.1098,-0.1119,-0.1024,-0.1069,-0.111,-0.1072,-0.1074,-0.1003,-0.0993,-0.097,-0.0882,-0.0877,-0.093,-0.0927,-0.0924,-0.0922,0,0,0,0,0,0,0,-0.1314,-0.13,-0.1163,-0.1183,-0.1178,-0.1172,-0.116,-0.1101,-0.105,-0.1106,-0.1104,-0.1092,-0.1001,-0.0975,-0.0967,-0.0876,-0.093,-0.0925,-0.0922,-0.0919,-0.0732,-0.073,0,0,0,0,0,0,-0.1326,-0.1306,-0.1166,-0.1159,-0.1247,-0.1168,-0.1154,-0.1122,-0.1051,-0.1042,-0.1091,-0.1091,-0.0985,-0.0974,-0.0963,-0.0886,-0.0924,-0.0919,-0.0915,-0.0733,-0.0731,-0.073,0,0,0,0,0,0,-0.133,-0.1314,-0.1171,-0.1232,-0.1213,-0.1163,-0.1127,-0.1119,-0.1094,-0.1039,-0.103,-0.1074,-0.0985,-0.0971,-0.0906,-0.0882,-0.0916,-0.0911,-0.0735,-0.0733,-0.0731,-0.0733,0,0,0,0,0,0,-0.1336,-0.1315,-0.1292,-0.1232,-0.121,-0.1117,-0.1126,-0.1116,-0.1084,-0.1083,-0.1021,-0.1012,-0.0985,-0.0915,-0.0901,-0.0874,-0.0906,-0.0737,-0.0734,-0.0731,-0.0735,-0.0731,-0.0728,0,0,0,0,0,-0.1343,-0.1297,-0.1291,-0.1274,-0.118,-0.1115,-0.1103,-0.1073,-0.1082,-0.1058,-0.1023,-0.1014,-0.0887,-0.0909,-0.0892,-0.0864,-0.0738,-0.0735,-0.0732,-0.0736,-0.0732,-0.0728,0,0,0,0,0,0,-0.1355,-0.1289,-0.1281,-0.1215,-0.1171,-0.1112,-0.108,-0.1069,-0.1021,-0.1023,-0.0987,-0.0973,-0.0911,-0.0881,-0.0906,-0.0801,-0.0813,-0.0806,-0.0823,-0.0818,-0.0814,-0.0822,-0.0902,0,0,0,0,0,-0.1351,-0.1304,-0.1248,-0.1195,-0.1173,-0.1131,-0.1101,-0.1082,-0.1035,-0.1016,-0.0976,-0.093,-0.088,-0.0848,-0.0798,-0.0731,-0.0717,-0.0703,-0.07,-0.0697,-0.0691,-0.0653,-0.0646,-0.0719,-0.0719,-0.0719,0,0,-0.134,-0.1298,-0.127,-0.1196,-0.116,-0.1112,-0.1115,-0.1064,-0.1028,-0.1008,-0.0945,-0.0914,-0.086,-0.0794,-0.0763,-0.0767,-0.0668,-0.0693,-0.0691,-0.0687,-0.0648,-0.0642,-0.0636,-0.0716,-0.0717,-0.0717,0,0,-0.1295,-0.1259,-0.1211,-0.1175,-0.112,-0.1092,-0.108,-0.1022,-0.1001,-0.0937,-0.0922,-0.0878,-0.0792,-0.0754,-0.0724,-0.0666,-0.0655,-0.0651,-0.0632,-0.0594,-0.0589,-0.0583,-0.0561,-0.0554,-0.0645,-0.0645,-0.0645,0,-0.1289,-0.1216,-0.1187,-0.1136,-0.1104,-0.1085,-0.1035,-0.1001,-0.0933,-0.0911,-0.0917,-0.0809,-0.0772,-0.0696,-0.0682,-0.0658,-0.0643,-0.0657,-0.0592,-0.0586,-0.0581,-0.056,-0.0552,-0.0645,-0.0645,-0.0645,-0.0645,0,-0.121,-0.116,-0.1127,-0.1062,-0.1026,-0.0976,-0.0939,-0.0906,-0.0891,-0.0862,-0.0796,-0.0751,-0.0692,-0.0673,-0.0657,-0.0595,-0.0599,-0.0599,-0.061,-0.0574,-0.0553,-0.0545,-0.0644,-0.0645,-0.0645,-0.0645,0,0,-0.1169,-0.1089,-0.1078,-0.1048,-0.0986,-0.0947,-0.0896,-0.0839,-0.0811,-0.0765,-0.072,-0.0648,-0.0648,-0.0614,-0.0594,-0.0561,-0.0517,-0.0565,-0.0563,-0.0556,-0.0444,-0.0443,-0.0434,-0.051,-0.0508,-0.0507,-0.0448,0,-0.1116,-0.1025,-0.0997,-0.0921,-0.0873,-0.0855,-0.0811,-0.0768,-0.074,-0.0695,-0.0664,-0.0613,-0.0618,-0.0597,-0.0564,-0.0529,-0.0493,-0.0533,-0.0467,-0.0465,-0.048,-0.0423,-0.0422,-0.0368,-0.0439,-0.0438,-0.0437,0,-0.1042,-0.0995,-0.0914,-0.0858,-0.0837,-0.0798,-0.0743,-0.0701,-0.0652,-0.0634,-0.0596,-0.0578,-0.0524,-0.0539,-0.0463,-0.0491,-0.0462,-0.0441,-0.0438,-0.043,-0.0448,-0.0411,-0.035,-0.0341,-0.0424,-0.0425,-0.0426,0,-0.1018,-0.0935,-0.0875,-0.0851,-0.0784,-0.0757,-0.0728,-0.068,-0.0648,-0.06,-0.0578,-0.0525,-0.0495,-0.0453,-0.0422,-0.0436,-0.0348,-0.0361,-0.033,-0.0331,-0.0311,-0.0312,-0.0242,-0.0295,-0.0296,-0.0296,-0.0296,0,-0.0961,-0.0912,-0.0864,-0.0827,-0.0771,-0.074,-0.0685,-0.0655,-0.0613,-0.0569,-0.0551,-0.051,-0.0472,-0.0426,-0.0401,-0.0341,-0.0328,-0.0311,-0.0305,-0.0312,-0.0314,-0.0291,-0.0294,-0.0294,-0.0294,-0.0294,-0.0295,0,-0.0925,-0.0891,-0.0825,-0.0768,-0.0752,-0.0713,-0.0664,-0.0628,-0.0599,-0.0545,-0.053,-0.0485,-0.043,-0.0395,-0.0325,-0.0308,-0.0242,-0.0238,-0.0259,-0.0255,-0.0226,-0.0228,-0.0138,-0.0124,-0.0188,-0.0187,-0.0187,0,-0.089,-0.0851,-0.0791,-0.0761,-0.0732,-0.0683,-0.065,-0.0618,-0.0584,-0.0525,-0.0495,-0.0439,-0.0393,-0.0306,-0.0266,-0.0213,-0.0206,-0.0178,-0.0197,-0.0206,-0.0204,-0.0206,-0.0201,-0.0174,-0.0174,-0.0173,-0.0173,0,-0.0831,-0.0816,-0.0769,-0.0716,-0.0677,-0.0634,-0.059,-0.0566,-0.0527,-0.049,-0.0433,-0.0397,-0.0326,-0.027,-0.0213,-0.0183,-0.017,-0.0167,-0.0157,-0.0163,-0.0176,-0.0167,-0.0248,-0.0169,-0.0169,-0.017,-0.017,-0.017,-0.0793,-0.0758,-0.0709,-0.0657,-0.0622,-0.0582,-0.0544,-0.0511,-0.0464,-0.0404,-0.0388,-0.0329,-0.0281,-0.0203,-0.0171,-0.0124,-0.0128,-0.0113,-0.0109,-0.0106,-0.0104,-0.0185,-0.0114,-0.0114,-0.0114,-0.0114,-0.0114,0,-0.0732,-0.07,-0.0653,-0.0593,-0.0552,-0.0545,-0.0497,-0.0463,-0.0411,-0.0368,-0.0322,-0.0258,-0.0204,-0.0161,-0.0105,-0.0075,-0.0068,-0.0062,-0.0062,-0.0055,-0.0105,-0.0119,-0.0068,-0.0068,-0.0068,-0.0068,-0.0068,-0.0068,-0.0695,-0.0635,-0.0614,-0.0536,-0.0504,-0.0447,-0.0419,-0.0382,-0.0347,-0.0276,-0.0231,-0.0203,-0.0159,-0.01,-0.005,-0.0039,-0.0019,-0.0013,-0.0,-0.0047,-0.0052,-0.0057,-0.0069,-0.0009,-0.0009,0.0046,0.0047,0.0047]}]]